Regional Weather Roundup
Issued by NWS Goodland, KS

Home | Current Version | Previous Version | Graphics & Text | Print | Product List | Glossary On
Versions: 1 2 3 4 5 6 7 8 9 10 11 12 13 14 15 16 17 18 19 20 21 22 23 24 25 26 27 28 29 30 31 32 33 34 35 36 37 38 39 40 41 42 43 44 45 46 47 48 49 50
000
ASUS43 KGLD 052359
RWRGLD

GOODLAND FORECAST AREA HOURLY WEATHER ROUNDUP
NATIONAL WEATHER SERVICE GOODLAND KS
600 PM MDT THU MAY 05 2016

...OFFICIAL OBSERVATIONS...

CITY           SKY/WX    TMP DP  RH WIND       PRES   REMARKS
GOODLAND KS    CLOUDY    77  44  30 SE16G23   30.00F
HILL CITY KS   CLOUDY    79  45  29 SE10      30.01F
IMPERIAL NEB   CLOUDY    79  44  28 S16       29.97F
MCCOOK NEB     CLOUDY    76  48  37 S15       29.98F
AKRON CO       SUNNY     77  34  21 S13       30.00F
BURLINGTON CO  SUNNY     78  35  21 SE20      30.02F
LIMON CO       SUNNY     74  35  24 SE17      30.05F
$$

...UNOFFICIAL OBSERVATIONS...

CITY           SKY/WX    TMP DP  RH WIND       PRES   REMARKS
COLBY KS       SUNNY     75  55  50 SE10      30.02S
LENORA KS        N/A     76  32  20 MISG        N/A
NORTON KS      SUNNY     79  39  24 SE10      29.99F
SHARON SPRINGS   N/A     80  47  30 SE12G22     N/A
TRIBUNE KS     SUNNY     81  46  30 SE15      30.03S
KIT CARSON CO    N/A     81  41  23 MISG        N/A
YUMA CO          N/A     79  41  25 SE5G12      N/A
$$



USA.gov is the U.S. government's official web portal to all federal, state and local government web resources and services.